Home   Weather   Greifswald   Past weeks

Flag for Germany Past Weather in Greifswald, Mecklenburg-Western Pomerania, Germany — Yesterday and Last 2 Weeks

Now
48 °F

Passing clouds.


Feels Like: 44 °F
Forecast: 36 / 54 °F
Wind: 7 mph from Southwest

Location: Trollenhagen

Current Time: Apr 27, 2017 at 3:23:15 pm

Latest Report: Apr 27, 2017 at 1:00 pm


Visibility: N/A

Pressure: 29.94 "Hg

Humidity: 42%

Dew Point: 26 °F

Location of GreifswaldLocation

Past Weather in Greifswald — Graph

°F

Greifswald Temperature Yesterday

Maximum temperature yesterday: 49 °F (at 4:00 pm)
Minimum temperature yesterday: 34 °F (at 4:00 am)
Average temperature yesterday: 41 °F

High & Low Weather Summary for the Past Weeks

 TemperatureHumidityPressure
High55 °F (Apr 21, 4:00 pm)99% (Apr 16, 7:00 am)30.61 "Hg (Apr 16, 7:00 am)
Low28 °F (Apr 20, 4:00 am)42% (Apr 27, 1:00 pm)29.59 "Hg (Apr 25, 9:00 am)
Average41 °F79%30.00 "Hg
* Reported Apr 12 1:00 pm — Apr 27 1:00 pm, Greifswald, Weather by CustomWeather, © 2017

Note: Actual official high and low records may vary slightly from our data, if they occured in-between our weather recording intervals... More about our weather records

Advertising

Greifswald Weather History for the Previous 24 Hours

Scroll right to see more
 ConditionsComfort  
Time TempWeatherWind HumidityBarometerVisibility
1:00 pm
Thu, Apr 27
48 °FPassing clouds.7 mph42%29.94 "HgN/A
12:00 pm48 °FPassing clouds.7 mph51%29.94 "HgN/A
10:00 am45 °FPassing clouds.3 mph69%29.94 "HgN/A
9:00 am41 °FSunny.3 mph81%29.94 "HgN/A
7:00 am35 °FSunny.2 mph92%29.93 "HgN/A
6:00 am34 °FSunny.2 mph97%29.92 "HgN/A
4:00 am34 °FClear.2 mph95%29.92 "HgN/A
3:00 am35 °FClear.2 mph88%29.92 "HgN/A
1:00 am35 °FClear.1 mph94%29.92 "HgN/A
12:00 am38 °FOvercast.2 mph85%29.92 "HgN/A
10:00 pm
Wed, Apr 26
41 °FOvercast.1 mph79%29.91 "HgN/A
9:00 pm40 °FClear.2 mph83%29.90 "HgN/A
7:00 pm48 °FScattered clouds.5 mph47%29.87 "HgN/A
6:00 pm47 °FPartly sunny.3 mph50%29.87 "HgN/A
4:00 pm49 °FOvercast.3 mph51%29.86 "HgN/A
3:00 pm47 °FOvercast.5 mph55%29.86 "HgN/A
Weather by CustomWeather, © 2017

See weather overviewHow to use our weather pages